This is the latest recevied weather packets stored in our database for station/object KF0WJA. If no packets are shown the sender has not sent any weather packets the latest 10 day(s).
| Time | Temp. | Humidity | Pressure | Rain* | Wind** | Luminosity | Snow |
|---|---|---|---|---|---|---|---|
| 1787625036 | 23.89° C | 84% | 1016.5 hPa | 0 mm | - | 0 W/m² | - |
| 1787624731 | 24.44° C | 83% | 1016.6 hPa | 0 mm | - | 0 W/m² | - |
| 1787624431 | 24.44° C | 83% | 1016.5 hPa | 0 mm | - | 0 W/m² | - |
| 1787624126 | 24.44° C | 82% | 1016.3 hPa | 0 mm | - | 0 W/m² | - |
| 1787623826 | 25° C | 81% | 1016.1 hPa | 0 mm | - | 0 W/m² | - |
| 1787623526 | 25° C | 80% | 1016.1 hPa | 0 mm | - | 0 W/m² | - |
| 1787623221 | 25.56° C | 79% | 1016 hPa | 0 mm | - | 0 W/m² | - |
| 1787622921 | 26.11° C | 77% | 1016 hPa | 0 mm | - | 0 W/m² | - |
| 1787622617 | 26.11° C | 76% | 1015.8 hPa | 0 mm | - | 0 W/m² | - |
| 1787622314 | 26.67° C | 76% | 1015.8 hPa | 0 mm | - | 0 W/m² | - |
| 1787622008 | 26.67° C | 74% | 1015.7 hPa | 0 mm | - | 0 W/m² | - |
| 1787621702 | 26.67° C | 74% | 1015.5 hPa | 0 mm | - | 0 W/m² | - |
| 1787621397 | 26.67° C | 74% | 1015.4 hPa | 0 mm | - | 0 W/m² | - |
| 1787621094 | 27.22° C | 72% | 1015.5 hPa | 0 mm | - | 0 W/m² | - |
| 1787620789 | 27.22° C | 71% | 1015.3 hPa | 0 mm | - | 0 W/m² | - |
| 1787620490 | 27.78° C | 71% | 1015.3 hPa | 0 mm | - | 0 W/m² | - |
| 1787620185 | 27.78° C | 70% | 1015.4 hPa | 0 mm | - | 1 W/m² | - |
| 1787619881 | 27.78° C | 69% | 1015 hPa | 0 mm | - | 4 W/m² | - |
| 1787619575 | 28.33° C | 69% | 1015.3 hPa | 0 mm | - | 6 W/m² | - |
| 1787619270 | 28.33° C | 68% | 1015 hPa | 0 mm | - | 11 W/m² | - |
| 1787618965 | 28.89° C | 66% | 1015.1 hPa | 0 mm | - | 16 W/m² | - |
| 1787618660 | 28.89° C | 65% | 1015.2 hPa | 0 mm | - | 21 W/m² | - |
| 1787618358 | 29.44° C | 65% | 1015 hPa | 0 mm | - | 25 W/m² | - |
| 1787618054 | 29.44° C | 64% | 1015.2 hPa | 0 mm | - | 33 W/m² | - |
| 1787617754 | 29.44° C | 64% | 1015 hPa | 0 mm | - | 42 W/m² | - |
* Rain latest hour (hover to see other rain measurements)
** Current wind speed in m/s (hover to see current wind gust speed)